FENGYUN 1C DEB, 32114

Orbit data source: Space-Track

FENGYUN 1C DEB, 32114 is space debris in SSO originally from a launch on Mon, 10 May 1999 UTC launched from the Taiyaun Space Center, China (TSC). Fengyun 1C debris stems from the Chinese weather satellite Fengyun-1C, which was intentionally destroyed by a Chinese anti-satellite missile in 2007. This event dramatically increased the amount of space debris, with thousands of trackable fragments posing hazards to satellites and human spaceflight. The Fengyun 1C debris cloud has become a focal point in discussions about space sustainability and the need for international regulations to prevent the creation of new debris.

Loading next visibility...
Identifier
32114, 1999-025CRG
Orbit
SSO
Country
Flag of CNCN / PRC
Related business
Manufacturer
Unknown
Mission
Spacecraft
Bus & Motor
Unknown
Mass
Unknown
Launch date (UTC)
1999-05-10 (27 years ago)
Launch vehicle
Unknown
Launch site
Taiyaun Space Center, China (TSC)
Object type
Payload
Rocket body
Debris
Shape & HBR
Unknown shape, 0.1 m
Radar Cross Section
Small (<0.1 m²)

Expand to show TLE details & history
Last TLE update: 2 weeks ago

TLE from 2 weeks ago
0 FENGYUN 1C DEB
1 32114U 99025CRG 25340.55511159  .00028770  00000-0  40575-2 0  9999
2 32114  99.9287  96.1919 0044768   3.5911 356.5605 14.76489439656383
Epoch: 2025-12-06T13:19Z
TLE epoch observation values (Epoch: 2025-12-06T13:19:21.641Z)
Latitude
-0.00002°
Longitude
-179.22944°
Altitude
612.006 km
Speed
7.57 km/s
True Right ascension
06h 24m 46s
True Declination
0° 00' 00"
Sunlit
Object was in full shadow at epoch
Visualization orbit readout
Latitude
Unknown
Longitude
Unknown
Altitude
Unknown
Speed
Unknown
Apparent Right ascension
Unknown
Apparent Declination
Unknown
Sunlit
N/A
Visualization observer readout
Local Sidereal Time
01:18:40
Azimuth
Unknown
Elevation
Unknown
Doppler factor
Unknown
Orbital elements
Apogee altitude
668.983 km
Perigee altitude
606.167 km
Semi-major axis
7,015.712 km
Eccentricity
0.00448
Inclination
99.9287°
RAAN
96.1919°
Arg. of periapsis
3.5911°
True anomaly
356.52955°
Mean anomaly
356.5605°
Eccentric anomaly
356.54504°
Mean motion
3.69348 °/min
Orbital period
97.47 mins
BSTAR
0.0040575
Loading maneuver chart data...
Computing Atmospheric mass density...

Documentation

Showing up to 5 results
|